DW6196 Weather Reports


time (UTC)temp
C
wind
direction
speed
KPH
gust
KPH
rain 1hr
cm
rain 24hr
cm
rain mn
cm
humidity
%
barometer
mb
20210723144609 29 0.0 0.0 0.00 0.00 0.00 75 1017.6
20210723143023 29 0.0 0.0 0.00 0.00 0.00 75 1017.6
20210723141542 29 0.0 0.0 0.00 0.00 0.00 75 1017.6
20210723140013 29 0.0 0.0 0.00 0.00 0.00 75 1017.7
20210723134542 29 0.0 0.0 0.00 0.00 0.00 75 1017.8
20210723133104 29 287 0.0 3.2 0.00 0.00 0.00 75 1017.6
20210723131514 25 300 3.2 3.2 0.00 0.00 0.00 75 1017.4
20210723130148 25 0.0 0.0 0.00 0.00 0.00 75 1017.3
20210723124545 25 0.0 0.0 0.00 0.00 0.00 75 1017.2
20210723123056 25 338 0.0 0.0 0.00 0.00 0.00 75 1017.2
20210723121505 25 338 0.0 0.0 0.00 0.00 0.00 75 1017.2
20210723120115 25 338 0.0 0.0 0.00 0.00 0.00 75 1017.2
20210723114603 25 241 0.0 0.0 0.00 0.00 0.00 75 1017.0
20210723113025 25 241 0.0 0.0 0.00 0.00 0.00 75 1016.9
20210723111645 25 241 0.0 0.0 0.00 0.00 0.00 75 1016.8
20210723110105 25 0.0 0.0 0.00 0.00 0.00 75 1016.7
20210723104633 25 241 0.0 0.0 0.00 0.00 0.00 75 1016.6
20210723103012 25 241 0.0 0.0 0.00 0.00 0.00 75 1016.5
20210723101642 25 0.0 0.0 0.00 0.00 0.00 75 1016.4
20210723100110 25 241 0.0 0.0 0.00 0.00 0.00 75 1016.3
20210723093224 25 0.0 0.0 0.00 0.00 0.00 77 1016.4
20210723091638 25 241 0.0 0.0 0.00 0.00 0.00 77 1016.5
20210723090018 25 241 0.0 0.0 0.00 0.00 0.00 77 1016.5
20210723084709 26 0.0 0.0 0.00 0.00 0.00 77 1016.4
20210723083045 26 241 0.0 0.0 0.00 0.00 0.00 77 1016.3
20210723080107 26 241 0.0 0.0 0.00 0.00 0.00 85 1016.3
20210723074529 26 241 0.0 0.0 0.00 0.00 0.00 85 1016.4
20210723071657 26 0.0 0.0 0.00 0.00 0.00 85 1016.4
20210723070019 26 241 0.0 0.0 0.00 0.00 0.00 85 1016.6
20210723060055 26 0.0 0.0 0.00 0.00 0.00 85 1017.1
20210723054634 26 0.0 0.0 0.00 0.00 0.00 85 1017.1
20210723053030 26 0.0 0.0 0.00 0.00 0.00 85 1017.2
20210723050047 26 234 0.0 0.0 0.00 0.00 0.00 85 1017.2
20210723044547 26 204 0.0 0.0 0.00 0.00 0.00 85 1017.2
20210723041654 27 204 0.0 0.0 0.00 0.00 0.00 85 1017.2
20210723040106 27 204 0.0 3.2 0.00 0.00 0.00 85 1017.2
20210723034541 27 204 0.0 3.2 0.00 0.00 0.00 85 1017.4
20210723033153 27 204 0.0 3.2 0.00 0.00 0.00 85 1017.7
20210723031550 27 204 0.0 1.6 0.00 0.00 0.00 85 1017.6
20210723030042 27 204 0.0 1.6 0.00 0.00 0.00 85 1017.4
20210723023101 27 204 0.0 0.0 0.00 0.00 0.00 84 1017.2
20210723021513 27 204 0.0 1.6 0.00 0.00 0.00 84 1017.0
20210723020153 27 174 0.0 9.7 0.00 0.00 0.00 84 1016.9
20210723014554 28 207 0.0 1.6 0.00 0.00 0.00 83 1016.8
20210723011610 28 210 0.0 3.2 0.00 0.00 0.00 81 1016.6
20210723010047 28 219 0.0 0.0 0.00 0.00 0.00 80 1016.5
20210723003045 29 92 0.0 4.8 0.00 0.00 0.00 77 1016.2
20210723000101 30 298 0.0 8.0 0.00 0.00 0.00 74 1016.0
20210722233046 30 166 1.6 9.7 0.00 0.00 0.00 72 1016.1
20210722230102 31 250 0.0 8.0 0.00 0.00 0.00 69 1015.9
20210722224503 32 232 1.6 8.0 0.00 0.00 0.00 68 1015.8
20210722223243 32 62 0.0 11.3 0.00 0.00 0.00 68 1016.0
20210722221510 32 90 0.0 4.8 0.00 0.00 0.00 67 1016.1
20210722220056 32 206 1.6 8.0 0.00 0.00 0.00 65 1016.1
20210722214517 33 119 0.0 8.0 0.00 0.00 0.00 64 1016.0
20210722213203 33 217 0.0 9.7 0.00 0.00 0.00 65 1016.0
20210722211621 33 129 0.0 4.8 0.00 0.00 0.00 64 1016.2
20210722210137 33 234 0.0 6.4 0.00 0.00 0.00 65 1016.3
20210722204539 34 196 1.6 12.9 0.00 0.00 0.00 64 1016.3
20210722203002 34 194 1.6 9.7 0.00 0.00 0.00 63 1016.5
20210722201635 34 195 1.6 6.4 0.00 0.00 0.00 62 1016.5
20210722200021 34 93 0.0 16.1 0.00 0.00 0.00 63 1016.6
20210722194717 34 287 0.0 6.4 0.00 0.00 0.00 63 1016.7
20210722193022 34 239 0.0 8.0 0.00 0.00 0.00 63 1016.7
20210722191711 33 94 0.0 8.0 0.00 0.00 0.00 66 1016.9
20210722190025 33 267 0.0 4.8 0.00 0.00 0.00 66 1017.1
20210722184634 34 80 0.0 6.4 0.00 0.00 0.00 64 1017.3
20210722183131 34 329 0.0 8.0 0.00 0.00 0.00 59 1017.3
20210722181552 33 0.0 0.0 0.00 0.00 0.00 85 1017.5
20210722180015 33 285 0.0 0.0 0.00 0.00 0.00 85 1017.6
20210722173152 26 0.0 0.0 0.00 0.00 0.00 85 1017.9
20210722171550 26 0.0 0.0 0.00 0.00 0.00 85 1018.1
20210722164651 26 0.0 0.0 0.00 0.00 0.00 85 1018.4
20210722163218 26 0.0 0.0 0.00 0.00 0.00 85 1018.4
20210722161556 26 0.0 0.0 0.00 0.00 0.00 85 1018.4
20210722160017 26 0.0 0.0 0.00 0.00 0.00 85 1018.4
20210722153221 26 0.0 0.0 0.00 0.00 0.00 85 1018.5
20210722151618 26 0.0 0.0 0.00 0.00 0.00 85 1018.5
20210722150012 26 0.0 0.0 0.00 0.00 0.00 85 1018.4